EWG2U EDDM-LIRP

Flight info

Callsign EWG2U
Flight time 0h 55m
Altitude 33000
Route TURBU6E/08R TURBU Y107 BAKOR DCT UVOKI DCT BEROK
Aircraft A320/M-SDE3FGHIRWY/LB1

Departure

Time 2026-05-01 13:09
Airport Munich Airport (EDDM)

Arrival

Time 2026-05-01 14:05
Airport Pisa International Airport (LIRP)
Time Latitude Longitude Altitude Speed Heading
2026-05-01 12:04 48.34864 11.78388 1486 ft 0 kts 83°
2026-05-01 12:47 48.34863 11.78383 1473 ft 3 kts 84°
2026-05-01 12:47 48.34863 11.78343 1477 ft 4 kts 98°
2026-05-01 12:48 48.34869 11.78304 1475 ft 4 kts 111°
2026-05-01 12:48 48.34880 11.78267 1475 ft 4 kts 120°
2026-05-01 12:48 48.34893 11.78232 1474 ft 4 kts 109°
2026-05-01 12:48 48.34896 11.78212 1478 ft 2 kts 83°
2026-05-01 12:49 48.34889 11.78178 1483 ft 4 kts 51°
2026-05-01 12:49 48.34881 11.78162 1471 ft 0 kts 72°
2026-05-01 12:55 48.34883 11.78168 1474 ft 2 kts 72°
2026-05-01 12:55 48.34895 11.78198 1483 ft 5 kts 41°
2026-05-01 12:56 48.34940 11.78206 1478 ft 7 kts 355°
2026-05-01 12:56 48.34987 11.78198 1476 ft 6 kts 353°
2026-05-01 12:56 48.35040 11.78189 1475 ft 10 kts 353°
2026-05-01 12:56 48.35126 11.78174 1483 ft 11 kts 353°
2026-05-01 12:57 48.35195 11.78162 1479 ft 8 kts 353°
2026-05-01 12:57 48.35286 11.78144 1485 ft 5 kts 355°
2026-05-01 12:57 48.35320 11.78139 1477 ft 4 kts 350°
2026-05-01 12:58 48.35327 11.78076 1479 ft 11 kts 262°
2026-05-01 12:58 48.35317 11.77948 1485 ft 12 kts 263°
2026-05-01 12:58 48.35308 11.77832 1485 ft 10 kts 263°
2026-05-01 12:59 48.35203 11.77780 1480 ft 10 kts 173°
2026-05-01 12:59 48.35123 11.77794 1485 ft 13 kts 173°
2026-05-01 12:59 48.34935 11.77827 1477 ft 11 kts 173°
2026-05-01 13:00 48.34779 11.77881 1481 ft 11 kts 173°
2026-05-01 13:00 48.34731 11.77889 1478 ft 6 kts 173°
2026-05-01 13:01 48.34730 11.77889 1479 ft 0 kts 173°
2026-05-01 13:01 48.34729 11.77889 1485 ft 1 kts 173°
2026-05-01 13:02 48.34692 11.77895 1472 ft 8 kts 180°
2026-05-01 13:07 48.34275 11.77195 1476 ft 14 kts 117°
2026-05-01 13:07 48.34239 11.77302 1480 ft 8 kts 106°
2026-05-01 13:07 48.34240 11.77336 1485 ft 0 kts 84°
2026-05-01 13:08 48.34240 11.77343 1485 ft 7 kts 84°
2026-05-01 13:08 48.34278 11.77835 1471 ft 85 kts 83°
2026-05-01 13:09 48.34369 11.79033 1486 ft 143 kts 84°
2026-05-01 13:09 48.34481 11.80669 1924 ft 158 kts 84°
2026-05-01 13:09 48.34598 11.82290 2869 ft 155 kts 84°
2026-05-01 13:09 48.34725 11.83946 3493 ft 168 kts 85°
2026-05-01 13:10 48.34867 11.85812 3894 ft 191 kts 84°
2026-05-01 13:10 48.35029 11.87937 4416 ft 217 kts 84°
2026-05-01 13:10 48.35208 11.90268 5253 ft 229 kts 85°
2026-05-01 13:10 48.35394 11.92671 6112 ft 235 kts 85°
2026-05-01 13:11 48.35265 11.95112 6996 ft 239 kts 111°
2026-05-01 13:11 48.34270 11.97113 7832 ft 246 kts 138°
2026-05-01 13:11 48.32917 11.98729 8740 ft 250 kts 139°
2026-05-01 13:11 48.31528 12.00343 9586 ft 255 kts 140°
2026-05-01 13:12 48.30028 12.01817 10418 ft 264 kts 153°
2026-05-01 13:12 48.28231 12.02616 11047 ft 281 kts 169°
2026-05-01 13:12 48.26208 12.02629 11510 ft 299 kts 180°
2026-05-01 13:12 48.24100 12.02475 12232 ft 306 kts 180°
2026-05-01 13:13 48.21954 12.02333 12997 ft 311 kts 180°
2026-05-01 13:13 48.19771 12.02200 13746 ft 316 kts 179°
2026-05-01 13:13 48.17559 12.02071 14450 ft 320 kts 179°
2026-05-01 13:13 48.15315 12.01944 15145 ft 324 kts 179°
2026-05-01 13:14 48.13055 12.01818 15850 ft 327 kts 179°
2026-05-01 13:14 48.10767 12.01689 16540 ft 331 kts 179°
2026-05-01 13:14 48.08457 12.01556 17238 ft 334 kts 180°
2026-05-01 13:14 48.06132 12.01082 17842 ft 344 kts 191°
2026-05-01 13:15 48.03715 12.00110 17982 ft 366 kts 193°
2026-05-01 13:15 48.01235 11.99094 18249 ft 379 kts 190°
2026-05-01 13:15 47.98579 11.98546 18764 ft 383 kts 183°
2026-05-01 13:15 47.95907 11.98115 19303 ft 388 kts 183°
2026-05-01 13:16 47.93218 11.97687 19855 ft 391 kts 183°
2026-05-01 13:16 47.90495 11.97258 20395 ft 395 kts 184°
2026-05-01 13:16 47.87750 11.96827 20920 ft 399 kts 184°
2026-05-01 13:17 47.79360 11.95508 22482 ft 410 kts 184°
2026-05-01 13:17 47.76506 11.95058 22990 ft 413 kts 184°
2026-05-01 13:18 47.70726 11.94480 23954 ft 419 kts 178°
2026-05-01 13:18 47.67795 11.94430 24357 ft 423 kts 178°
2026-05-01 13:18 47.64845 11.94386 24783 ft 425 kts 178°
2026-05-01 13:18 47.61876 11.94341 25146 ft 429 kts 178°
2026-05-01 13:19 47.58885 11.94291 25561 ft 431 kts 179°
2026-05-01 13:19 47.55873 11.94236 25957 ft 434 kts 178°
2026-05-01 13:19 47.49797 11.94124 26763 ft 439 kts 178°
2026-05-01 13:20 47.46731 11.94071 27147 ft 442 kts 178°
2026-05-01 13:20 47.43644 11.94005 27538 ft 445 kts 181°
2026-05-01 13:20 47.40544 11.93514 27926 ft 449 kts 186°
2026-05-01 13:21 47.34318 11.92255 28691 ft 455 kts 186°
2026-05-01 13:21 47.31173 11.91620 29040 ft 457 kts 186°
2026-05-01 13:21 47.28015 11.90988 29401 ft 460 kts 186°
2026-05-01 13:21 47.24837 11.90355 29757 ft 462 kts 186°
2026-05-01 13:22 47.21639 11.89722 30110 ft 465 kts 186°
2026-05-01 13:22 47.18420 11.89086 30432 ft 467 kts 186°
2026-05-01 13:22 47.15191 11.88450 30730 ft 470 kts 186°
2026-05-01 13:22 47.11948 11.87809 31024 ft 471 kts 186°
2026-05-01 13:23 47.08686 11.87161 31313 ft 474 kts 186°
2026-05-01 13:23 47.05419 11.86510 31584 ft 475 kts 186°
2026-05-01 13:23 47.02135 11.85856 31901 ft 476 kts 186°
2026-05-01 13:23 46.98862 11.85090 32284 ft 476 kts 188°
2026-05-01 13:24 46.96707 11.84481 32543 ft 476 kts 190°
2026-05-01 13:24 46.93466 11.83444 32834 ft 476 kts 191°
2026-05-01 13:24 46.90249 11.82336 33094 ft 475 kts 191°
2026-05-01 13:25 46.83834 11.80113 33290 ft 462 kts 191°
2026-05-01 13:25 46.77669 11.78109 33288 ft 455 kts 190°
2026-05-01 13:26 46.71482 11.76187 33287 ft 454 kts 189°
2026-05-01 13:26 46.65300 11.74272 33287 ft 454 kts 190°
2026-05-01 13:27 46.59122 11.72011 33277 ft 456 kts 198°
2026-05-01 13:27 46.50130 11.67491 33268 ft 456 kts 197°
2026-05-01 13:28 46.41116 11.63036 33268 ft 456 kts 197°
2026-05-01 13:29 46.29107 11.57107 33279 ft 456 kts 197°
2026-05-01 13:31 46.11085 11.48260 33328 ft 457 kts 197°
2026-05-01 13:32 45.96020 11.40899 33334 ft 457 kts 197°
2026-05-01 13:33 45.80948 11.33568 33340 ft 457 kts 197°
2026-05-01 13:34 45.68881 11.27752 33350 ft 458 kts 198°
2026-05-01 13:35 45.59831 11.23384 33357 ft 458 kts 197°
2026-05-01 13:36 45.50772 11.19052 33352 ft 458 kts 197°
2026-05-01 13:36 45.41712 11.14733 33352 ft 458 kts 197°
2026-05-01 13:37 45.35626 11.11828 33345 ft 458 kts 197°
2026-05-01 13:37 45.29582 11.08956 33341 ft 458 kts 197°
2026-05-01 13:38 45.23608 11.06120 32832 ft 448 kts 197°
2026-05-01 13:38 45.20658 11.04721 32577 ft 445 kts 197°
2026-05-01 13:38 45.17731 11.03337 32320 ft 443 kts 198°
2026-05-01 13:39 45.14802 11.01956 32056 ft 442 kts 198°
2026-05-01 13:39 45.11929 11.00601 31806 ft 440 kts 198°
2026-05-01 13:39 45.09028 10.99231 31555 ft 439 kts 198°
2026-05-01 13:39 45.06101 10.97853 31300 ft 437 kts 198°
2026-05-01 13:40 45.03221 10.96499 31056 ft 436 kts 198°
2026-05-01 13:40 45.00349 10.95151 30808 ft 434 kts 198°
2026-05-01 13:40 44.97485 10.93807 30563 ft 433 kts 198°
2026-05-01 13:40 44.94633 10.92469 30310 ft 431 kts 198°
2026-05-01 13:41 44.91791 10.91138 30023 ft 430 kts 198°
2026-05-01 13:41 44.88960 10.89813 29739 ft 428 kts 198°
2026-05-01 13:41 44.86142 10.88499 29458 ft 426 kts 198°
2026-05-01 13:41 44.83330 10.87189 29182 ft 424 kts 198°
2026-05-01 13:42 44.80532 10.85887 28905 ft 422 kts 198°
2026-05-01 13:42 44.77751 10.84592 28636 ft 420 kts 198°
2026-05-01 13:42 44.74991 10.83304 28248 ft 415 kts 198°
2026-05-01 13:42 44.72257 10.82027 27779 ft 412 kts 198°
2026-05-01 13:43 44.69543 10.80764 27309 ft 410 kts 198°
2026-05-01 13:43 44.66842 10.79508 26840 ft 408 kts 198°
2026-05-01 13:43 44.64152 10.78260 26363 ft 406 kts 198°
2026-05-01 13:43 44.61476 10.77021 25871 ft 405 kts 198°
2026-05-01 13:44 44.58798 10.75785 25378 ft 404 kts 198°
2026-05-01 13:44 44.56128 10.74553 24865 ft 404 kts 198°
2026-05-01 13:44 44.53460 10.73316 24352 ft 405 kts 199°
2026-05-01 13:44 44.50892 10.71712 23860 ft 403 kts 211°
2026-05-01 13:45 44.48591 10.69513 23348 ft 399 kts 219°
2026-05-01 13:45 44.46405 10.67149 22900 ft 396 kts 219°
2026-05-01 13:45 44.44229 10.64799 22427 ft 393 kts 219°
2026-05-01 13:45 44.42067 10.62468 21977 ft 391 kts 219°
2026-05-01 13:46 44.39917 10.60157 21536 ft 389 kts 218°
2026-05-01 13:46 44.37775 10.57853 21093 ft 388 kts 218°
2026-05-01 13:46 44.35647 10.55562 20656 ft 386 kts 218°
2026-05-01 13:46 44.33524 10.53280 20208 ft 384 kts 218°
2026-05-01 13:47 44.31405 10.51009 19773 ft 383 kts 218°
2026-05-01 13:47 44.29293 10.48749 19342 ft 382 kts 217°
2026-05-01 13:47 44.27186 10.46499 18917 ft 381 kts 217°
2026-05-01 13:47 44.25080 10.44254 18456 ft 381 kts 217°
2026-05-01 13:48 44.22978 10.42016 18012 ft 379 kts 217°
2026-05-01 13:48 44.20894 10.39800 17591 ft 376 kts 217°
2026-05-01 13:48 44.18820 10.37595 17166 ft 374 kts 217°
2026-05-01 13:48 44.16751 10.35432 16775 ft 370 kts 213°
2026-05-01 13:49 44.14501 10.33723 16396 ft 367 kts 205°
2026-05-01 13:49 44.12206 10.32189 15998 ft 365 kts 204°
2026-05-01 13:49 44.09921 10.30673 15631 ft 363 kts 204°
2026-05-01 13:49 44.07649 10.29170 15253 ft 362 kts 204°
2026-05-01 13:50 44.05376 10.27673 14860 ft 361 kts 204°
2026-05-01 13:50 44.03107 10.26169 14475 ft 361 kts 204°
2026-05-01 13:50 44.00842 10.24671 14098 ft 360 kts 204°
2026-05-01 13:50 43.98582 10.23191 13665 ft 358 kts 204°
2026-05-01 13:51 43.96338 10.21713 13250 ft 356 kts 204°
2026-05-01 13:51 43.94108 10.20236 12826 ft 355 kts 204°
2026-05-01 13:51 43.91887 10.18762 12423 ft 353 kts 204°
2026-05-01 13:51 43.89681 10.17291 12017 ft 351 kts 204°
2026-05-01 13:52 43.87493 10.15825 11609 ft 344 kts 204°
2026-05-01 13:52 43.85384 10.14401 11220 ft 331 kts 204°
2026-05-01 13:52 43.83349 10.13018 10826 ft 322 kts 204°
2026-05-01 13:52 43.81358 10.11656 10441 ft 318 kts 204°
2026-05-01 13:53 43.79384 10.10297 10048 ft 316 kts 204°
2026-05-01 13:53 43.75472 10.07604 9208 ft 310 kts 204°
2026-05-01 13:53 43.73522 10.06399 8792 ft 304 kts 196°
2026-05-01 13:54 43.71520 10.05503 8392 ft 301 kts 194°
2026-05-01 13:54 43.69529 10.04665 7985 ft 298 kts 194°
2026-05-01 13:54 43.67551 10.03843 7610 ft 295 kts 194°
2026-05-01 13:54 43.65559 10.03218 7295 ft 292 kts 185°
2026-05-01 13:55 43.63557 10.02873 6973 ft 288 kts 179°
2026-05-01 13:55 43.61574 10.02887 6703 ft 281 kts 174°
2026-05-01 13:55 43.59646 10.02989 6440 ft 274 kts 174°
2026-05-01 13:55 43.57769 10.03096 6181 ft 267 kts 174°
2026-05-01 13:56 43.55940 10.03201 6022 ft 257 kts 174°
2026-05-01 13:56 43.54203 10.03292 6005 ft 243 kts 174°
2026-05-01 13:56 43.52525 10.03374 6004 ft 241 kts 174°
2026-05-01 13:56 43.50853 10.03454 6003 ft 241 kts 174°
2026-05-01 13:57 43.49178 10.03536 5819 ft 240 kts 172°
2026-05-01 13:57 43.48088 10.03821 5701 ft 233 kts 154°
2026-05-01 13:57 43.46427 10.05490 5461 ft 220 kts 120°
2026-05-01 13:57 43.45803 10.07353 5291 ft 212 kts 97°
2026-05-01 13:58 43.45782 10.09344 5111 ft 207 kts 75°
2026-05-01 13:58 43.46197 10.11232 4936 ft 207 kts 70°
2026-05-01 13:58 43.46630 10.13120 4711 ft 206 kts 70°
2026-05-01 13:58 43.47057 10.15001 4482 ft 206 kts 71°
2026-05-01 13:59 43.47514 10.16895 4245 ft 205 kts 64°
2026-05-01 13:59 43.48278 10.18529 4069 ft 204 kts 47°
2026-05-01 13:59 43.49338 10.19830 4010 ft 205 kts 39°
2026-05-01 13:59 43.50086 10.20627 4010 ft 206 kts 38°
2026-05-01 14:00 43.51213 10.21789 3889 ft 199 kts 38°
2026-05-01 14:00 43.52316 10.22918 3663 ft 197 kts 38°
2026-05-01 14:00 43.53409 10.24039 3418 ft 194 kts 38°
2026-05-01 14:00 43.54480 10.25135 3162 ft 190 kts 38°
2026-05-01 14:01 43.55529 10.26211 2931 ft 184 kts 39°
2026-05-01 14:01 43.56544 10.27252 2676 ft 180 kts 38°
2026-05-01 14:01 43.57532 10.28266 2416 ft 174 kts 38°
2026-05-01 14:01 43.58490 10.29250 2191 ft 170 kts 38°
2026-05-01 14:02 43.59442 10.30227 1944 ft 171 kts 37°
2026-05-01 14:02 43.60359 10.31169 1723 ft 160 kts 37°
2026-05-01 14:02 43.61231 10.32065 1541 ft 151 kts 38°
2026-05-01 14:02 43.62027 10.32883 1342 ft 139 kts 36°
2026-05-01 14:03 43.62793 10.33673 1188 ft 138 kts 34°
2026-05-01 14:03 43.63546 10.34447 962 ft 135 kts 34°
2026-05-01 14:03 43.64298 10.35225 824 ft 134 kts 35°
2026-05-01 14:03 43.65059 10.35990 609 ft 135 kts 36°
2026-05-01 14:04 43.65819 10.36787 460 ft 138 kts 32°
2026-05-01 14:04 43.66578 10.37572 262 ft 135 kts 33°
2026-05-01 14:04 43.67336 10.38351 85 ft 136 kts 31°
2026-05-01 14:04 43.68048 10.39084 17 ft 109 kts 37°
2026-05-01 14:05 43.68518 10.39572 19 ft 60 kts 37°
2026-05-01 14:05 43.68780 10.39843 19 ft 43 kts 37°
2026-05-01 14:05 43.69006 10.40075 20 ft 38 kts 36°
2026-05-01 14:05 43.69192 10.40266 20 ft 22 kts 37°
2026-05-01 14:06 43.69266 10.40304 20 ft 10 kts 340°
2026-05-01 14:06 43.69316 10.40230 18 ft 12 kts 304°
2026-05-01 14:06 43.69363 10.40140 23 ft 10 kts 306°
2026-05-01 14:06 43.69425 10.40098 22 ft 9 kts 351°
2026-05-01 14:07 43.69500 10.40083 16 ft 9 kts 352°
2026-05-01 14:07 43.69573 10.40069 15 ft 12 kts 352°
2026-05-01 14:07 43.69648 10.40055 15 ft 6 kts 352°
2026-05-01 14:08 43.69709 10.40024 16 ft 3 kts
2026-05-01 14:08 43.69731 10.40028 15 ft 4 kts
2026-05-01 14:08 43.69744 10.40030 15 ft 1 kts
2026-05-01 14:08 43.69747 10.40031 15 ft 0 kts
2026-05-01 14:10 43.69746 10.40031 15 ft 0 kts
2026-05-01 14:18 43.60365 10.31175 1727 ft 160 kts 37°
2026-05-01 14:18 43.60948 10.31774 1599 ft 156 kts 37°
2026-05-01 14:19 43.62032 10.32889 1341 ft 139 kts 36°
2026-05-01 14:19 43.62799 10.33679 1188 ft 138 kts 34°
2026-05-01 14:19 43.63551 10.34453 953 ft 135 kts 34°
2026-05-01 14:19 43.64303 10.35231 821 ft 134 kts 34°
2026-05-01 14:20 43.65064 10.35994 611 ft 135 kts 36°
2026-05-01 14:20 43.66583 10.37577 261 ft 135 kts 33°
2026-05-01 14:20 43.67341 10.38356 83 ft 136 kts 31°
2026-05-01 14:21 43.68051 10.39088 17 ft 102 kts 38°
2026-05-01 14:21 43.67461 10.38481 51 ft 135 kts 31°
2026-05-01 14:21 43.66559 10.37552 265 ft 135 kts 33°
2026-05-01 14:22 43.64651 10.35585 722 ft 136 kts 33°
2026-05-01 14:22 43.66963 10.37965 171 ft 136 kts 32°
2026-05-01 14:22 43.67056 10.38060 152 ft 135 kts 31°
2026-05-01 14:22 43.67567 10.38593 32 ft 135 kts 32°
2026-05-01 14:23 43.68222 10.39266 18 ft 94 kts 37°
2026-05-01 14:23 43.66342 10.37322 315 ft 135 kts 33°
2026-05-01 14:23 43.67107 10.38113 140 ft 136 kts 30°
2026-05-01 14:23 43.67843 10.38868 17 ft 124 kts 34°
2026-05-01 14:24 43.66411 10.37395 293 ft 135 kts 33°
2026-05-01 14:24 43.68190 10.39232 17 ft 94 kts 37°
2026-05-01 14:24 43.67000 10.38003 165 ft 135 kts 31°
2026-05-01 14:25 43.67704 10.38734 20 ft 131 kts 32°
2026-05-01 14:25 43.68307 10.39355 18 ft 85 kts 37°
2026-05-01 14:25 43.68627 10.39686 19 ft 11 kts 37°
2026-05-01 14:26 43.68630 10.39689 19 ft 0 kts 37°